Location: Erp
(42.9417°N, 1.2009°E)
Time: 08:21:48
(UTC+00:00)

Meteor 1-23 Rocket - Pass Details

Date: 12 January 2026
Orbit: 840 x 883 km, 81.3° (Epoch: 17 February)

Event Time Altitude Azimuth Distance (km) Brightness Sun altitude
Rises 17:41:50 0° 173° (S) 3,443 7.5 -10.7°
Reaches altitude 10° 17:44:19 10° 168° (SSE) 2,504 6.8 -11.1°
Maximum altitude 17:49:48 52° 94° (E) 1,068 4.4 -12.1°
Drops below altitude 10° 17:55:16 10° 20° (NNE) 2,493 6.3 -13.0°
Sets 17:57:44 0° 15° (NNE) 3,427 7.0 -13.5°
